Location: Shepherdstown, WV
(39.4326°N, 77.8042°W)
Time: 10:33:45
(UTC-04:00)

Tiangong - Pass Details

Date: 26 June 2021
Orbit: 374 x 386 km, 41.5° (Epoch: 25 July)

Event Time Altitude Azimuth Distance (km) Brightness Sun altitude
Exits shadow 03:40:32 38° 298° (WNW) 586 1.9 -18.5°
Maximum altitude 03:41:25 57° 356° (N) 449 1.6 -18.4°
Drops below altitude 10° 03:44:31 10° 77° (ENE) 1,390 4.6 -18.1°
Sets 03:46:36 0° 81° (E) 2,245 5.6 -17.8°
